| time (UTC) | temp F | wind direction | speed MPH | gust MPH | rain 1hr in | rain 24hr in | rain mn in | humidity % | barometer mb |
| 20260901114946 | 81 | 201 | 0.0 | 0.0 | 0.00 | 0.00 | 0.00 | 94 | 974.2 |
| 20260901114441 | 81 | 201 | 0.0 | 0.0 | 0.00 | 0.00 | 0.00 | 94 | 973.9 |
| 20260901113939 | 81 | 201 | 0.0 | 0.0 | 0.00 | 0.00 | 0.00 | 94 | 973.9 |
| 20260901113438 | 81 | 200 | 0.0 | 0.0 | 0.00 | 0.00 | 0.00 | 93 | 973.8 |
| 20260901112934 | 81 | 201 | 0.0 | 0.0 | 0.00 | 0.00 | 0.00 | 93 | 973.7 |
| 20260901112429 | 81 | 200 | 0.0 | 0.0 | 0.00 | 0.00 | 0.00 | 93 | 973.5 |
| 20260901111924 | 82 | 200 | 0.0 | 0.0 | 0.00 | 0.00 | 0.00 | 93 | 973.6 |
| 20260901111423 | 82 | 200 | 0.0 | 0.0 | 0.00 | 0.00 | 0.00 | 94 | 973.3 |
| 20260901110921 | 82 | 199 | 0.0 | 0.0 | 0.00 | 0.00 | 0.00 | 93 | 973.3 |
| 20260901110417 | 82 | 198 | 0.0 | 0.0 | 0.00 | 0.00 | 0.00 | 92 | 973.5 |
| 20260901105913 | 82 | 198 | 0.0 | 0.0 | 0.00 | 0.00 | 0.00 | 91 | 973.2 |
| 20260901105408 | 82 | 198 | 0.0 | 0.0 | 0.00 | 0.00 | 0.00 | 92 | 973.1 |
| 20260901104904 | 82 | 198 | 0.0 | 0.0 | 0.00 | 0.00 | 0.00 | 91 | 973.2 |
| 20260901104359 | 82 | 198 | 0.0 | 0.0 | 0.00 | 0.00 | 0.00 | 92 | 973.1 |
| 20260901103855 | 82 | 198 | 0.0 | 0.0 | 0.00 | 0.00 | 0.00 | 90 | 972.9 |
| 20260901103354 | 82 | 198 | 0.0 | 0.0 | 0.00 | 0.00 | 0.00 | 92 | 973.0 |
| 20260901102848 | 82 | 199 | 0.0 | 0.0 | 0.00 | 0.00 | 0.00 | 92 | 972.7 |
| 20260901102343 | 82 | 194 | 0.0 | 0.0 | 0.00 | 0.00 | 0.00 | 92 | 972.9 |
| 20260901101839 | 82 | 194 | 0.0 | 0.0 | 0.00 | 0.00 | 0.00 | 92 | 972.8 |
| 20260901101333 | 83 | 194 | 0.0 | 0.0 | 0.00 | 0.00 | 0.00 | 92 | 972.4 |
| 20260901100833 | 83 | 194 | 0.0 | 0.0 | 0.00 | 0.00 | 0.00 | 92 | 972.7 |
| 20260901100328 | 83 | 194 | 0.0 | 0.0 | 0.00 | 0.00 | 0.00 | 91 | 972.7 |
| 20260901095827 | 83 | 194 | 0.0 | 0.0 | 0.00 | 0.00 | 0.00 | 92 | 972.8 |
| 20260901095324 | 84 | 194 | 0.0 | 0.0 | 0.00 | 0.00 | 0.00 | 91 | 972.6 |
| 20260901094818 | 84 | 193 | 0.0 | 0.0 | 0.00 | 0.00 | 0.00 | 91 | 972.8 |
| 20260901094313 | 84 | 193 | 0.0 | 0.0 | 0.00 | 0.00 | 0.00 | 91 | 972.8 |
| 20260901093808 | 84 | 193 | 0.0 | 0.0 | 0.00 | 0.00 | 0.00 | 89 | 972.5 |
| 20260901093307 | 84 | 193 | 0.0 | 0.0 | 0.00 | 0.00 | 0.00 | 88 | 972.8 |
| 20260901092804 | 85 | 193 | 0.0 | 0.0 | 0.00 | 0.00 | 0.00 | 88 | 972.5 |
| 20260901092259 | 85 | 193 | 0.0 | 0.0 | 0.00 | 0.00 | 0.00 | 88 | 972.4 |
| 20260901091755 | 85 | 193 | 0.0 | 0.0 | 0.00 | 0.00 | 0.00 | 87 | 972.3 |
| 20260901091249 | 86 | 193 | 0.0 | 0.0 | 0.00 | 0.00 | 0.00 | 87 | 972.4 |
| 20260901090744 | 86 | 193 | 0.0 | 0.0 | 0.00 | 0.00 | 0.00 | 87 | 972.4 |
| 20260901090239 | 87 | 193 | 0.0 | 0.0 | 0.00 | 0.00 | 0.00 | 86 | 972.3 |
| 20260901085735 | 87 | 193 | 0.0 | 0.0 | 0.00 | 0.00 | 0.00 | 84 | 972.4 |
| 20260901085230 | 87 | 193 | 0.0 | 0.0 | 0.00 | 0.00 | 0.00 | 84 | 972.6 |
| 20260901084726 | 88 | 193 | 0.0 | 0.0 | 0.00 | 0.00 | 0.00 | 83 | 972.9 |
| 20260901084223 | 88 | 193 | 0.0 | 0.0 | 0.00 | 0.00 | 0.00 | 81 | 972.7 |
| 20260901083717 | 89 | 193 | 0.0 | 0.0 | 0.00 | 0.00 | 0.00 | 82 | 972.6 |
| 20260901083217 | 89 | 193 | 0.0 | 0.0 | 0.00 | 0.00 | 0.00 | 85 | 972.5 |
| 20260901082715 | 89 | 193 | 0.0 | 0.0 | 0.00 | 0.00 | 0.00 | 82 | 972.5 |
| 20260901082211 | 89 | 192 | 0.0 | 0.0 | 0.00 | 0.00 | 0.00 | 83 | 972.4 |
| 20260901081707 | 89 | 190 | 0.0 | 0.0 | 0.00 | 0.00 | 0.00 | 85 | 972.5 |
| 20260901081206 | 89 | 185 | 0.0 | 0.0 | 0.00 | 0.00 | 0.00 | 84 | 972.4 |
| 20260901080701 | 89 | 175 | 0.0 | 0.0 | 0.00 | 0.00 | 0.00 | 80 | 972.6 |
| 20260901080159 | 89 | 175 | 0.0 | 0.0 | 0.00 | 0.00 | 0.00 | 82 | 972.5 |
| 20260901075655 | 88 | 175 | 0.0 | 0.0 | 0.00 | 0.00 | 0.00 | 77 | 972.7 |
| 20260901075154 | 89 | 203 | 0.0 | 0.0 | 0.00 | 0.00 | 0.00 | 79 | 972.8 |
| 20260901074654 | 89 | 203 | 0.0 | 0.0 | 0.00 | 0.00 | 0.00 | 83 | 972.7 |
| 20260901074149 | 89 | 202 | 0.0 | 0.0 | 0.00 | 0.00 | 0.00 | 81 | 972.8 |
| 20260901073645 | 88 | 186 | 0.0 | 0.0 | 0.00 | 0.00 | 0.00 | 84 | 973.1 |
| 20260901073141 | 88 | 185 | 0.0 | 0.0 | 0.00 | 0.00 | 0.00 | 79 | 973.1 |
| 20260901072636 | 88 | 186 | 0.0 | 0.0 | 0.00 | 0.00 | 0.00 | 78 | 973.1 |
| 20260901072131 | 89 | 185 | 0.0 | 0.0 | 0.00 | 0.00 | 0.00 | 79 | 973.2 |
| 20260901071625 | 89 | 203 | 0.0 | 0.0 | 0.00 | 0.00 | 0.00 | 79 | 973.4 |
| 20260901071124 | 89 | 165 | 0.0 | 0.0 | 0.00 | 0.00 | 0.00 | 79 | 973.3 |
| 20260901070619 | 89 | 165 | 0.0 | 0.0 | 0.00 | 0.00 | 0.00 | 78 | 973.2 |
| 20260901070114 | 89 | 184 | 0.0 | 0.0 | 0.00 | 0.00 | 0.00 | 80 | 973.6 |
| 20260901065608 | 89 | 186 | 0.0 | 0.0 | 0.00 | 0.00 | 0.00 | 79 | 973.3 |
| 20260901065103 | 88 | 181 | 0.0 | 0.0 | 0.00 | 0.00 | 0.00 | 79 | 973.4 |
| 20260901064600 | 88 | 180 | 0.0 | 0.0 | 0.00 | 0.00 | 0.00 | 80 | 973.5 |
| 20260901064056 | 88 | 181 | 0.0 | 0.0 | 0.00 | 0.00 | 0.00 | 81 | 973.7 |
| 20260901063553 | 88 | 180 | 0.0 | 0.0 | 0.00 | 0.00 | 0.00 | 83 | 973.9 |
| 20260901063049 | 88 | 180 | 0.0 | 0.0 | 0.00 | 0.00 | 0.00 | 83 | 973.9 |
| 20260901062544 | 87 | 177 | 0.0 | 0.0 | 0.00 | 0.00 | 0.00 | 81 | 973.7 |
| 20260901062040 | 87 | 181 | 0.0 | 0.0 | 0.00 | 0.00 | 0.00 | 84 | 974.2 |
| 20260901061536 | 87 | 164 | 0.0 | 1.0 | 0.00 | 0.00 | 0.00 | 81 | 974.2 |
| 20260901061031 | 87 | 182 | 0.0 | 0.0 | 0.00 | 0.00 | 0.00 | 83 | 974.3 |
| 20260901060525 | 87 | 164 | 0.0 | 1.0 | 0.00 | 0.00 | 0.00 | 81 | 974.2 |
| 20260901060020 | 87 | 163 | 0.0 | 0.0 | 0.00 | 0.00 | 0.00 | 81 | 974.2 |
| 20260901055515 | 87 | 164 | 0.0 | 0.0 | 0.00 | 0.00 | 0.00 | 82 | 974.4 |
| 20260901055012 | 87 | 204 | 0.0 | 0.0 | 0.00 | 0.00 | 0.00 | 84 | 974.5 |
| 20260901054509 | 87 | 197 | 0.0 | 0.0 | 0.00 | 0.00 | 0.00 | 85 | 974.6 |
| 20260901054005 | 86 | 197 | 0.0 | 0.0 | 0.00 | 0.00 | 0.00 | 85 | 974.6 |
| 20260901053500 | 86 | 187 | 0.0 | 0.0 | 0.00 | 0.00 | 0.00 | 85 | 974.8 |
| 20260901052956 | 86 | 174 | 0.0 | 0.0 | 0.00 | 0.00 | 0.00 | 84 | 974.8 |
| 20260901052451 | 86 | 158 | 1.0 | 1.0 | 0.00 | 0.00 | 0.00 | 85 | 975.2 |
| 20260901051944 | 86 | 173 | 0.0 | 0.0 | 0.00 | 0.00 | 0.00 | 83 | 975.1 |
| 20260901051439 | 87 | 170 | 0.0 | 0.0 | 0.00 | 0.00 | 0.00 | 84 | 975.1 |
| 20260901050938 | 87 | 173 | 0.0 | 1.0 | 0.00 | 0.00 | 0.00 | 83 | 975.3 |
| 20260901050434 | 87 | 166 | 1.0 | 1.0 | 0.00 | 0.00 | 0.00 | 84 | 975.2 |
| 20260901045929 | 87 | 154 | 1.0 | 1.0 | 0.00 | 0.00 | 0.00 | 83 | 975.4 |
| 20260901045424 | 87 | 165 | 0.0 | 0.0 | 0.00 | 0.00 | 0.00 | 83 | 975.7 |
| 20260901044919 | 87 | 177 | 0.0 | 0.0 | 0.00 | 0.00 | 0.00 | 86 | 975.7 |
| 20260901044415 | 87 | 179 | 0.0 | 0.0 | 0.00 | 0.00 | 0.00 | 84 | 975.7 |
| 20260901043910 | 86 | 165 | 0.0 | 0.0 | 0.00 | 0.00 | 0.00 | 85 | 975.5 |
| 20260901043406 | 87 | 164 | 0.0 | 1.0 | 0.00 | 0.00 | 0.00 | 82 | 975.9 |
| 20260901042901 | 87 | 177 | 0.0 | 1.0 | 0.00 | 0.00 | 0.00 | 84 | 975.8 |
| 20260901042355 | 86 | 165 | 1.0 | 1.0 | 0.00 | 0.00 | 0.00 | 84 | 975.8 |
| 20260901041851 | 86 | 177 | 0.0 | 1.0 | 0.00 | 0.00 | 0.00 | 85 | 976.0 |
| 20260901041345 | 86 | 168 | 0.0 | 1.0 | 0.00 | 0.00 | 0.00 | 84 | 976.2 |
| 20260901040839 | 86 | 180 | 0.0 | 0.0 | 0.00 | 0.00 | 0.00 | 86 | 976.0 |
| 20260901040339 | 85 | 201 | 0.0 | 0.0 | 0.00 | 0.00 | 0.00 | 88 | 976.2 |
| 20260901035839 | 84 | 182 | 0.0 | 0.0 | 0.00 | 0.00 | 0.00 | 89 | 976.2 |
| 20260901035337 | 84 | 181 | 0.0 | 0.0 | 0.00 | 0.00 | 0.00 | 88 | 976.2 |
| 20260901034836 | 84 | 202 | 0.0 | 0.0 | 0.00 | 0.00 | 0.00 | 88 | 976.2 |
| 20260901034331 | 84 | 202 | 0.0 | 0.0 | 0.00 | 0.00 | 0.00 | 88 | 976.3 |
| 20260901033831 | 84 | 202 | 0.0 | 0.0 | 0.00 | 0.00 | 0.00 | 86 | 976.4 |
| 20260901033330 | 85 | 184 | 0.0 | 0.0 | 0.00 | 0.00 | 0.00 | 88 | 976.2 |
| 20260901032829 | 85 | 184 | 0.0 | 0.0 | 0.00 | 0.00 | 0.00 | 89 | 976.3 |
| 20260901032328 | 85 | 184 | 0.0 | 0.0 | 0.00 | 0.00 | 0.00 | 88 | 976.3 |
| 20260901031824 | 84 | 184 | 0.0 | 0.0 | 0.00 | 0.00 | 0.00 | 89 | 976.3 |
| 20260901031320 | 84 | 180 | 0.0 | 0.0 | 0.00 | 0.00 | 0.00 | 89 | 976.1 |
| 20260901030819 | 83 | 177 | 0.0 | 0.0 | 0.00 | 0.00 | 0.00 | 89 | 976.4 |
| 20260901030315 | 83 | 176 | 0.0 | 0.0 | 0.00 | 0.00 | 0.00 | 91 | 976.3 |
| 20260901025814 | 83 | 164 | 0.0 | 0.0 | 0.00 | 0.00 | 0.00 | 91 | 976.4 |
| 20260901025309 | 82 | 203 | 0.0 | 0.0 | 0.00 | 0.00 | 0.00 | 91 | 976.3 |
| 20260901024804 | 82 | 194 | 0.0 | 1.0 | 0.00 | 0.00 | 0.00 | 92 | 976.3 |
| 20260901024303 | 82 | 202 | 0.0 | 0.0 | 0.00 | 0.00 | 0.00 | 94 | 976.4 |
| 20260901023801 | 81 | 202 | 0.0 | 0.0 | 0.00 | 0.00 | 0.00 | 94 | 976.4 |
| 20260901023256 | 81 | 200 | 0.0 | 0.0 | 0.00 | 0.00 | 0.00 | 95 | 976.6 |
| 20260901022751 | 80 | 184 | 0.0 | 0.0 | 0.00 | 0.00 | 0.00 | 96 | 976.4 |
| 20260901022247 | 80 | 191 | 0.0 | 0.0 | 0.00 | 0.00 | 0.00 | 95 | 976.3 |
| 20260901021742 | 80 | 190 | 0.0 | 0.0 | 0.00 | 0.00 | 0.00 | 96 | 976.3 |
| 20260901021238 | 80 | 196 | 0.0 | 0.0 | 0.00 | 0.00 | 0.00 | 97 | 976.4 |
| 20260901020733 | 80 | 196 | 0.0 | 0.0 | 0.00 | 0.00 | 0.00 | 97 | 976.3 |
| 20260901020228 | 80 | 196 | 0.0 | 0.0 | 0.00 | 0.00 | 0.00 | 97 | 976.3 |
| 20260901015723 | 80 | 196 | 0.0 | 0.0 | 0.00 | 0.00 | 0.00 | 97 | 976.3 |
| 20260901015218 | 80 | 196 | 0.0 | 0.0 | 0.00 | 0.00 | 0.00 | 97 | 976.2 |
| 20260901014713 | 80 | 196 | 0.0 | 0.0 | 0.00 | 0.00 | 0.00 | 95 | 976.1 |
| 20260901014209 | 80 | 196 | 0.0 | 0.0 | 0.00 | 0.00 | 0.00 | 97 | 976.1 |
| 20260901013704 | 80 | 196 | 0.0 | 0.0 | 0.00 | 0.00 | 0.00 | 98 | 976.4 |
| 20260901013200 | 80 | 196 | 0.0 | 0.0 | 0.00 | 0.00 | 0.00 | 97 | 976.1 |
| 20260901012655 | 80 | 196 | 0.0 | 0.0 | 0.00 | 0.00 | 0.00 | 99 | 976.0 |
| 20260901012149 | 80 | 196 | 0.0 | 0.0 | 0.00 | 0.00 | 0.00 | 99 | 976.0 |
| 20260901011646 | 80 | 196 | 0.0 | 0.0 | 0.00 | 0.00 | 0.00 | 99 | 975.9 |
| 20260901011144 | 80 | 196 | 0.0 | 0.0 | 0.00 | 0.00 | 0.00 | 99 | 975.9 |
| 20260901010640 | 79 | 196 | 0.0 | 0.0 | 0.00 | 0.00 | 0.00 | 99 | 975.9 |
| 20260901010139 | 79 | 196 | 0.0 | 0.0 | 0.00 | 0.00 | 0.00 | 99 | 975.7 |
| 20260901005638 | 78 | 196 | 0.0 | 0.0 | 0.00 | 0.00 | 0.00 | 99 | 975.7 |
| 20260901005134 | 78 | 196 | 0.0 | 0.0 | 0.00 | 0.00 | 0.00 | 99 | 975.7 |
| 20260901004633 | 77 | 196 | 0.0 | 0.0 | 0.00 | 0.00 | 0.00 | 99 | 975.7 |
| 20260901004128 | 77 | 203 | 0.0 | 0.0 | 0.00 | 0.00 | 0.00 | 99 | 975.7 |
| 20260901003623 | 77 | 195 | 0.0 | 0.0 | 0.00 | 0.00 | 0.00 | 99 | 975.7 |
| 20260901003121 | 77 | 194 | 0.0 | 0.0 | 0.00 | 0.00 | 0.00 | 99 | 975.5 |
| 20260901002616 | 76 | 195 | 0.0 | 0.0 | 0.00 | 0.00 | 0.00 | 99 | 975.6 |
| 20260901002110 | 76 | 195 | 0.0 | 0.0 | 0.00 | 0.00 | 0.00 | 99 | 975.5 |
| 20260901001600 | 76 | 195 | 0.0 | 0.0 | 0.00 | 0.00 | 0.00 | 99 | 975.5 |
| 20260901001055 | 76 | 196 | 0.0 | 0.0 | 0.00 | 0.00 | 0.00 | 99 | 975.6 |
| 20260901000549 | 76 | 196 | 0.0 | 0.0 | 0.00 | 0.00 | 0.00 | 99 | 975.5 |
| 20260901000045 | 75 | 196 | 0.0 | 0.0 | 0.00 | 0.00 | 0.00 | 99 | 975.4 |
| 20260831235538 | 75 | 196 | 0.0 | 0.0 | 0.00 | 0.00 | 0.00 | 99 | 975.5 |
| 20260831235034 | 75 | 196 | 0.0 | 0.0 | 0.00 | 0.00 | 0.00 | 99 | 975.3 |
| 20260831234528 | 75 | 196 | 0.0 | 0.0 | 0.00 | 0.00 | 0.00 | 99 | 975.3 |
| 20260831234025 | 75 | 196 | 0.0 | 0.0 | 0.00 | 0.00 | 0.00 | 99 | 975.0 |
| 20260831233519 | 75 | 196 | 0.0 | 0.0 | 0.00 | 0.00 | 0.00 | 99 | 975.3 |
| 20260831233015 | 75 | 196 | 0.0 | 0.0 | 0.00 | 0.00 | 0.00 | 99 | 975.4 |
| 20260831232510 | 75 | 196 | 0.0 | 0.0 | 0.00 | 0.00 | 0.00 | 99 | 975.2 |
| 20260831232006 | 75 | 196 | 0.0 | 0.0 | 0.00 | 0.00 | 0.00 | 99 | 975.1 |
| 20260831231502 | 75 | 196 | 0.0 | 0.0 | 0.00 | 0.00 | 0.00 | 99 | 975.0 |
| 20260831230957 | 75 | 196 | 0.0 | 0.0 | 0.00 | 0.00 | 0.00 | 99 | 975.1 |
| 20260831230453 | 75 | 196 | 0.0 | 0.0 | 0.00 | 0.00 | 0.00 | 99 | 975.2 |
| 20260831225947 | 75 | 196 | 0.0 | 0.0 | 0.00 | 0.00 | 0.00 | 99 | 975.0 |
| 20260831225443 | 75 | 196 | 0.0 | 0.0 | 0.00 | 0.00 | 0.00 | 99 | 975.0 |
| 20260831224938 | 75 | 196 | 0.0 | 0.0 | 0.00 | 0.00 | 0.00 | 99 | 975.0 |
| 20260831224437 | 76 | 196 | 0.0 | 0.0 | 0.00 | 0.00 | 0.00 | 99 | 975.1 |
| 20260831223932 | 76 | 196 | 0.0 | 0.0 | 0.00 | 0.00 | 0.00 | 99 | 975.1 |
| 20260831223428 | 76 | 196 | 0.0 | 0.0 | 0.00 | 0.00 | 0.00 | 99 | 974.8 |
| 20260831222925 | 76 | 196 | 0.0 | 0.0 | 0.00 | 0.00 | 0.00 | 99 | 974.7 |
| 20260831222420 | 76 | 196 | 0.0 | 0.0 | 0.00 | 0.00 | 0.00 | 99 | 974.8 |
| 20260831221914 | 76 | 196 | 0.0 | 0.0 | 0.00 | 0.00 | 0.00 | 99 | 974.6 |
| 20260831221411 | 76 | 196 | 0.0 | 0.0 | 0.00 | 0.00 | 0.00 | 99 | 975.0 |
| 20260831220905 | 76 | 196 | 0.0 | 0.0 | 0.00 | 0.00 | 0.00 | 99 | 974.8 |
| 20260831220355 | 76 | 196 | 0.0 | 0.0 | 0.00 | 0.00 | 0.00 | 99 | 974.7 |
| 20260831215850 | 76 | 196 | 0.0 | 0.0 | 0.00 | 0.00 | 0.00 | 99 | 974.9 |
| 20260831215346 | 76 | 196 | 0.0 | 0.0 | 0.00 | 0.00 | 0.00 | 99 | 974.6 |
| 20260831214842 | 76 | 196 | 0.0 | 0.0 | 0.00 | 0.00 | 0.00 | 99 | 974.6 |
| 20260831214339 | 76 | 196 | 0.0 | 0.0 | 0.00 | 0.00 | 0.00 | 99 | 974.7 |
| 20260831213834 | 76 | 196 | 0.0 | 0.0 | 0.00 | 0.00 | 0.00 | 99 | 974.8 |
| 20260831213331 | 76 | 196 | 0.0 | 0.0 | 0.00 | 0.00 | 0.00 | 99 | 974.7 |
| 20260831212826 | 76 | 196 | 0.0 | 0.0 | 0.00 | 0.00 | 0.00 | 99 | 974.7 |
| 20260831212322 | 76 | 196 | 0.0 | 0.0 | 0.00 | 0.00 | 0.00 | 99 | 974.7 |
| 20260831211821 | 76 | 196 | 0.0 | 0.0 | 0.00 | 0.00 | 0.00 | 99 | 974.7 |
| 20260831211316 | 76 | 196 | 0.0 | 0.0 | 0.00 | 0.00 | 0.00 | 99 | 974.6 |
| 20260831210815 | 76 | 196 | 0.0 | 0.0 | 0.00 | 0.00 | 0.00 | 99 | 974.5 |
| 20260831210312 | 76 | 196 | 0.0 | 0.0 | 0.00 | 0.00 | 0.00 | 99 | 974.3 |
| 20260831205811 | 76 | 196 | 0.0 | 0.0 | 0.00 | 0.00 | 0.00 | 99 | 974.6 |
| 20260831205308 | 76 | 196 | 0.0 | 0.0 | 0.00 | 0.00 | 0.00 | 99 | 974.5 |
| 20260831204802 | 76 | 196 | 0.0 | 0.0 | 0.00 | 0.00 | 0.00 | 99 | 974.5 |
| 20260831204301 | 76 | 192 | 0.0 | 0.0 | 0.00 | 0.00 | 0.00 | 99 | 974.7 |
| 20260831203801 | 77 | 196 | 0.0 | 0.0 | 0.00 | 0.00 | 0.00 | 99 | 974.4 |
| 20260831203255 | 77 | 195 | 0.0 | 0.0 | 0.00 | 0.00 | 0.00 | 99 | 974.4 |
| 20260831202753 | 77 | 196 | 0.0 | 0.0 | 0.00 | 0.00 | 0.00 | 99 | 974.6 |
| 20260831202248 | 77 | 196 | 0.0 | 0.0 | 0.00 | 0.00 | 0.00 | 99 | 974.5 |
| 20260831201743 | 77 | 196 | 0.0 | 0.0 | 0.00 | 0.00 | 0.00 | 99 | 974.7 |
| 20260831201242 | 77 | 196 | 0.0 | 0.0 | 0.00 | 0.00 | 0.00 | 99 | 974.7 |
| 20260831200738 | 77 | 196 | 0.0 | 0.0 | 0.00 | 0.00 | 0.00 | 99 | 974.5 |
| 20260831200232 | 77 | 196 | 0.0 | 0.0 | 0.00 | 0.00 | 0.00 | 99 | 974.5 |
| 20260831195728 | 77 | 196 | 0.0 | 0.0 | 0.00 | 0.00 | 0.00 | 99 | 974.5 |
| 20260831195224 | 77 | 196 | 0.0 | 0.0 | 0.00 | 0.00 | 0.00 | 99 | 974.7 |
| 20260831194718 | 77 | 196 | 0.0 | 0.0 | 0.00 | 0.00 | 0.00 | 99 | 974.8 |
| 20260831194214 | 77 | 196 | 0.0 | 0.0 | 0.00 | 0.00 | 0.00 | 99 | 974.9 |
| 20260831193707 | 77 | 196 | 0.0 | 0.0 | 0.00 | 0.00 | 0.00 | 99 | 974.6 |
| 20260831193203 | 76 | 196 | 0.0 | 0.0 | 0.00 | 0.00 | 0.00 | 99 | 974.7 |
| 20260831192658 | 76 | 196 | 0.0 | 0.0 | 0.00 | 0.00 | 0.00 | 99 | 974.6 |
| 20260831192153 | 76 | 196 | 0.0 | 0.0 | 0.00 | 0.00 | 0.00 | 99 | 974.7 |
| 20260831191649 | 76 | 196 | 0.0 | 0.0 | 0.00 | 0.00 | 0.00 | 99 | 974.8 |
| 20260831191145 | 76 | 196 | 0.0 | 0.0 | 0.00 | 0.00 | 0.00 | 99 | 975.0 |
| 20260831190639 | 76 | 196 | 0.0 | 0.0 | 0.00 | 0.00 | 0.00 | 99 | 974.8 |
| 20260831190138 | 76 | 196 | 0.0 | 0.0 | 0.00 | 0.00 | 0.00 | 99 | 974.9 |
| 20260831185634 | 77 | 196 | 0.0 | 0.0 | 0.00 | 0.00 | 0.00 | 99 | 974.9 |
| 20260831185130 | 77 | 196 | 0.0 | 0.0 | 0.00 | 0.00 | 0.00 | 99 | 975.0 |
| 20260831184630 | 77 | 196 | 0.0 | 0.0 | 0.00 | 0.00 | 0.00 | 99 | 975.2 |
| 20260831184126 | 77 | 196 | 0.0 | 0.0 | 0.00 | 0.00 | 0.00 | 99 | 974.9 |
| 20260831183625 | 77 | 196 | 0.0 | 0.0 | 0.00 | 0.00 | 0.00 | 99 | 975.1 |
| 20260831183124 | 77 | 196 | 0.0 | 0.0 | 0.00 | 0.00 | 0.00 | 99 | 975.0 |
| 20260831182623 | 77 | 196 | 0.0 | 0.0 | 0.00 | 0.00 | 0.00 | 99 | 975.1 |
| 20260831182120 | 77 | 196 | 0.0 | 0.0 | 0.00 | 0.00 | 0.00 | 99 | 975.3 |
| 20260831181619 | 77 | 196 | 0.0 | 0.0 | 0.00 | 0.00 | 0.00 | 99 | 975.2 |
| 20260831181114 | 77 | 196 | 0.0 | 0.0 | 0.00 | 0.00 | 0.00 | 99 | 975.0 |
| 20260831180609 | 77 | 196 | 0.0 | 0.0 | 0.00 | 0.00 | 0.00 | 99 | 975.0 |
| 20260831180104 | 77 | 196 | 0.0 | 0.0 | 0.00 | 0.00 | 0.00 | 99 | 975.0 |
| 20260831175559 | 77 | 196 | 0.0 | 0.0 | 0.00 | 0.00 | 0.00 | 99 | 975.1 |
| 20260831175056 | 77 | 196 | 0.0 | 0.0 | 0.00 | 0.00 | 0.00 | 99 | 975.1 |
| 20260831174550 | 77 | 196 | 0.0 | 0.0 | 0.00 | 0.00 | 0.00 | 99 | 975.0 |
| 20260831174044 | 77 | 196 | 0.0 | 0.0 | 0.00 | 0.00 | 0.00 | 99 | 975.1 |
| 20260831173543 | 77 | 196 | 0.0 | 0.0 | 0.00 | 0.00 | 0.00 | 99 | 975.1 |
| 20260831173039 | 77 | 196 | 0.0 | 0.0 | 0.00 | 0.00 | 0.00 | 99 | 975.2 |
| 20260831172534 | 77 | 196 | 0.0 | 0.0 | 0.00 | 0.00 | 0.00 | 99 | 975.1 |
| 20260831172029 | 77 | 176 | 0.0 | 0.0 | 0.00 | 0.00 | 0.00 | 99 | 975.2 |
| 20260831171524 | 77 | 176 | 0.0 | 0.0 | 0.00 | 0.00 | 0.00 | 99 | 975.1 |
| 20260831171021 | 77 | 176 | 0.0 | 0.0 | 0.00 | 0.00 | 0.00 | 99 | 975.2 |
| 20260831170517 | 77 | 176 | 0.0 | 0.0 | 0.00 | 0.00 | 0.00 | 99 | 975.3 |
| 20260831170015 | 77 | 186 | 0.0 | 0.0 | 0.00 | 0.00 | 0.00 | 99 | 975.2 |
| 20260831165514 | 77 | 175 | 0.0 | 0.0 | 0.00 | 0.00 | 0.00 | 99 | 975.3 |
| 20260831165012 | 77 | 188 | 0.0 | 0.0 | 0.00 | 0.00 | 0.00 | 99 | 975.4 |
| 20260831164507 | 77 | 188 | 0.0 | 0.0 | 0.00 | 0.00 | 0.00 | 99 | 975.1 |
| 20260831164002 | 77 | 196 | 0.0 | 0.0 | 0.00 | 0.00 | 0.00 | 99 | 975.2 |
| 20260831163457 | 77 | 203 | 0.0 | 0.0 | 0.00 | 0.00 | 0.00 | 99 | 975.2 |
| 20260831162956 | 77 | 179 | 0.0 | 0.0 | 0.00 | 0.00 | 0.00 | 99 | 975.1 |
| 20260831162452 | 77 | 203 | 0.0 | 0.0 | 0.00 | 0.00 | 0.00 | 99 | 975.2 |
| 20260831161949 | 77 | 201 | 0.0 | 0.0 | 0.00 | 0.00 | 0.00 | 99 | 975.2 |
| 20260831161446 | 77 | 196 | 0.0 | 0.0 | 0.00 | 0.00 | 0.00 | 99 | 975.2 |
| 20260831160942 | 77 | 196 | 0.0 | 0.0 | 0.00 | 0.00 | 0.00 | 99 | 975.3 |
| 20260831160441 | 77 | 196 | 0.0 | 0.0 | 0.00 | 0.00 | 0.00 | 99 | 975.3 |
| 20260831155936 | 77 | 196 | 0.0 | 0.0 | 0.00 | 0.00 | 0.00 | 99 | 975.2 |
| 20260831155431 | 77 | 196 | 0.0 | 0.0 | 0.00 | 0.00 | 0.00 | 99 | 975.4 |
| 20260831154927 | 77 | 196 | 0.0 | 0.0 | 0.00 | 0.00 | 0.00 | 99 | 975.4 |
| 20260831154423 | 77 | 196 | 0.0 | 0.0 | 0.00 | 0.00 | 0.00 | 99 | 975.3 |
| 20260831153921 | 77 | 196 | 0.0 | 0.0 | 0.00 | 0.00 | 0.00 | 99 | 975.6 |
| 20260831153417 | 77 | 196 | 0.0 | 0.0 | 0.00 | 0.00 | 0.00 | 99 | 975.3 |
| 20260831152913 | 77 | 195 | 0.0 | 0.0 | 0.00 | 0.00 | 0.00 | 99 | 975.4 |
| 20260831152409 | 77 | 196 | 0.0 | 0.0 | 0.00 | 0.00 | 0.00 | 99 | 975.5 |
| 20260831151904 | 77 | 196 | 0.0 | 0.0 | 0.00 | 0.00 | 0.00 | 99 | 975.2 |
| 20260831151402 | 77 | 195 | 0.0 | 0.0 | 0.00 | 0.00 | 0.00 | 99 | 975.2 |
| 20260831150858 | 77 | 196 | 0.0 | 0.0 | 0.00 | 0.00 | 0.00 | 99 | 975.2 |
| 20260831150353 | 77 | 196 | 0.0 | 0.0 | 0.00 | 0.00 | 0.00 | 99 | 975.1 |
| 20260831145852 | 77 | 195 | 0.0 | 0.0 | 0.00 | 0.00 | 0.00 | 99 | 975.1 |
| 20260831145349 | 77 | 196 | 0.0 | 0.0 | 0.00 | 0.00 | 0.00 | 99 | 975.1 |
| 20260831144844 | 77 | 193 | 0.0 | 0.0 | 0.00 | 0.00 | 0.00 | 99 | 974.8 |
| 20260831144340 | 77 | 195 | 0.0 | 0.0 | 0.00 | 0.00 | 0.00 | 99 | 974.7 |
| 20260831143835 | 77 | 195 | 0.0 | 0.0 | 0.00 | 0.00 | 0.00 | 99 | 974.5 |
| 20260831143330 | 77 | 195 | 0.0 | 0.0 | 0.00 | 0.00 | 0.00 | 99 | 974.4 |
| 20260831142825 | 77 | 195 | 0.0 | 0.0 | 0.00 | 0.00 | 0.00 | 99 | 974.4 |
| 20260831142321 | 77 | 175 | 0.0 | 0.0 | 0.00 | 0.00 | 0.00 | 99 | 974.4 |
| 20260831141820 | 78 | 184 | 0.0 | 0.0 | 0.00 | 0.00 | 0.00 | 99 | 974.4 |
| 20260831141315 | 78 | 192 | 0.0 | 0.0 | 0.00 | 0.00 | 0.00 | 99 | 974.3 |
| 20260831140810 | 78 | 171 | 0.0 | 0.0 | 0.00 | 0.00 | 0.00 | 99 | 974.0 |
| 20260831140304 | 78 | 180 | 0.0 | 0.0 | 0.00 | 0.00 | 0.00 | 99 | 974.2 |
| 20260831135802 | 78 | 172 | 0.0 | 0.0 | 0.00 | 0.00 | 0.00 | 99 | 974.1 |
| 20260831135258 | 78 | 171 | 0.0 | 0.0 | 0.00 | 0.00 | 0.00 | 99 | 973.9 |
| 20260831134753 | 77 | 192 | 0.0 | 0.0 | 0.00 | 0.00 | 0.00 | 99 | 973.9 |
| 20260831134250 | 77 | 192 | 0.0 | 0.0 | 0.00 | 0.00 | 0.00 | 99 | 973.6 |
| 20260831133749 | 77 | 192 | 0.0 | 0.0 | 0.00 | 0.00 | 0.00 | 99 | 973.8 |
| 20260831133249 | 78 | 195 | 0.0 | 0.0 | 0.00 | 0.00 | 0.00 | 99 | 973.6 |
| 20260831132744 | 78 | 195 | 0.0 | 0.0 | 0.00 | 0.00 | 0.00 | 99 | 973.6 |
| 20260831132239 | 78 | 196 | 0.0 | 0.0 | 0.00 | 0.00 | 0.00 | 99 | 973.6 |
| 20260831131738 | 78 | 196 | 0.0 | 0.0 | 0.00 | 0.00 | 0.00 | 99 | 973.6 |
| 20260831131235 | 78 | 196 | 0.0 | 0.0 | 0.00 | 0.00 | 0.00 | 99 | 973.5 |
| 20260831130730 | 78 | 196 | 0.0 | 0.0 | 0.00 | 0.00 | 0.00 | 99 | 973.7 |
| 20260831130225 | 78 | 196 | 0.0 | 0.0 | 0.00 | 0.00 | 0.00 | 99 | 973.4 |
| 20260831125723 | 78 | 196 | 0.0 | 0.0 | 0.00 | 0.00 | 0.00 | 99 | 973.6 |
| 20260831125220 | 78 | 196 | 0.0 | 0.0 | 0.00 | 0.00 | 0.00 | 99 | 973.5 |
| 20260831124714 | 78 | 196 | 0.0 | 0.0 | 0.00 | 0.00 | 0.00 | 99 | 973.4 |
| 20260831124211 | 78 | 195 | 0.0 | 0.0 | 0.00 | 0.00 | 0.00 | 99 | 973.3 |
| 20260831123710 | 78 | 170 | 0.0 | 0.0 | 0.00 | 0.00 | 0.00 | 99 | 973.4 |
| 20260831123209 | 78 | 181 | 0.0 | 0.0 | 0.00 | 0.00 | 0.00 | 99 | 973.0 |
| 20260831122704 | 79 | 186 | 0.0 | 0.0 | 0.00 | 0.00 | 0.00 | 99 | 973.0 |
| 20260831122200 | 79 | 186 | 0.0 | 0.0 | 0.00 | 0.00 | 0.00 | 99 | 973.0 |
| 20260831121659 | 79 | 186 | 0.0 | 0.0 | 0.00 | 0.00 | 0.00 | 99 | 972.9 |
| 20260831121155 | 79 | 182 | 0.0 | 0.0 | 0.00 | 0.00 | 0.00 | 99 | 973.0 |
| 20260831120650 | 79 | 164 | 0.0 | 1.0 | 0.00 | 0.00 | 0.00 | 98 | 972.8 |
| 20260831120145 | 80 | 164 | 0.0 | 0.0 | 0.00 | 0.00 | 0.00 | 98 | 972.6 |
| 20260831115641 | 80 | 164 | 0.0 | 0.0 | 0.00 | 0.00 | 0.00 | 97 | 972.5 |